Time,TemperatureF,DewpointF,PressureIn,WindDirection,WindDirectionDegrees,WindSpeedMPH,WindSpeedGustMPH,Humidity,HourlyPrecipIn,Conditions,Clouds,dailyrainin,SoftwareType,DateUTC
2013-07-26 00:02:00,81.7,76.0,29.85,SW,225,2.7,-999.0,83,-99.99,,,0.00,Acu-Link.com,2013-07-26 04:02:00,
2013-07-26 00:17:00,81.5,76.2,29.84,West,270,5.3,-999.0,84,-99.99,,,0.00,Acu-Link.com,2013-07-26 04:17:00,
2013-07-26 00:32:00,81.5,76.5,29.85,WSW,247,3.7,-999.0,85,-99.99,,,0.00,Acu-Link.com,2013-07-26 04:32:00,
2013-07-26 00:47:00,81.1,76.1,29.85,WSW,247,6.3,-999.0,85,-99.99,,,0.00,Acu-Link.com,2013-07-26 04:47:00,
2013-07-26 01:02:00,81.0,76.1,29.86,SW,225,3.7,-999.0,85,-99.99,,,0.00,Acu-Link.com,2013-07-26 05:02:00,
2013-07-26 01:17:00,81.0,76.1,29.85,SSW,202,4.2,-999.0,85,-99.99,,,0.00,Acu-Link.com,2013-07-26 05:17:00,
2013-07-26 01:32:00,80.6,76.0,29.85,SW,225,2.7,-999.0,86,-99.99,,,0.00,Acu-Link.com,2013-07-26 05:32:00,
2013-07-26 01:47:00,80.2,76.0,29.84,SW,225,3.7,-999.0,87,-99.99,,,0.00,Acu-Link.com,2013-07-26 05:47:00,
2013-07-26 02:03:00,80.1,75.9,29.83,SW,225,5.3,-999.0,87,-99.99,,,0.00,Acu-Link.com,2013-07-26 06:03:00,
2013-07-26 02:18:00,79.7,75.5,29.83,West,270,4.7,-999.0,87,-99.99,,,0.00,Acu-Link.com,2013-07-26 06:18:00,
2013-07-26 02:33:00,79.5,75.3,29.82,WSW,247,3.2,-999.0,87,-99.99,,,0.00,Acu-Link.com,2013-07-26 06:33:00,
2013-07-26 02:48:00,79.2,75.3,29.83,SW,225,3.7,-999.0,88,-99.99,,,0.00,Acu-Link.com,2013-07-26 06:48:00,
2013-07-26 03:03:00,78.8,74.9,29.82,SW,225,2.7,-999.0,88,-99.99,,,0.00,Acu-Link.com,2013-07-26 07:03:00,
2013-07-26 03:18:00,78.8,74.9,29.81,SW,225,3.7,-999.0,88,-99.99,,,0.00,Acu-Link.com,2013-07-26 07:18:00,
2013-07-26 03:33:00,78.4,74.9,29.81,SW,225,4.2,-999.0,89,-99.99,,,0.00,Acu-Link.com,2013-07-26 07:33:00,
2013-07-26 03:48:00,78.3,75.1,29.81,SW,225,2.7,-999.0,90,-99.99,,,0.00,Acu-Link.com,2013-07-26 07:48:00,
2013-07-26 04:03:00,78.1,74.9,29.81,SW,225,3.2,-999.0,90,-99.99,,,0.00,Acu-Link.com,2013-07-26 08:03:00,
2013-07-26 04:19:00,78.1,74.9,29.81,SW,225,2.7,-999.0,90,-99.99,,,0.00,Acu-Link.com,2013-07-26 08:19:00,
2013-07-26 04:34:00,77.9,75.1,29.82,WSW,247,2.7,-999.0,91,-99.99,,,0.00,Acu-Link.com,2013-07-26 08:34:00,
2013-07-26 04:49:00,77.5,74.7,29.82,WSW,247,1.7,-999.0,91,-99.99,,,0.00,Acu-Link.com,2013-07-26 08:49:00,
2013-07-26 05:04:00,77.5,75.0,29.82,SW,225,3.2,-999.0,92,-99.99,,,0.00,Acu-Link.com,2013-07-26 09:04:00,
2013-07-26 05:19:00,77.5,75.0,29.83,WSW,247,4.7,-999.0,92,-99.99,,,0.00,Acu-Link.com,2013-07-26 09:19:00,
2013-07-26 05:34:00,77.5,75.0,29.83,WSW,247,2.2,-999.0,92,-99.99,,,0.00,Acu-Link.com,2013-07-26 09:34:00,
2013-07-26 05:49:00,77.5,75.0,29.82,SSW,202,4.2,-999.0,92,-99.99,,,0.00,Acu-Link.com,2013-07-26 09:49:00,
2013-07-26 06:05:00,77.7,74.9,29.83,SW,225,3.7,-999.0,91,-99.99,,,0.00,Acu-Link.com,2013-07-26 10:05:00,
2013-07-26 06:20:00,77.7,74.9,29.83,SW,225,4.7,-999.0,91,-99.99,,,0.00,Acu-Link.com,2013-07-26 10:20:00,
2013-07-26 06:35:00,77.7,74.9,29.84,SW,225,4.2,-999.0,91,-99.99,,,0.00,Acu-Link.com,2013-07-26 10:35:00,
2013-07-26 06:50:00,77.7,74.9,29.84,SW,225,3.2,-999.0,91,-99.99,,,0.00,Acu-Link.com,2013-07-26 10:50:00,
2013-07-26 07:05:00,77.9,75.1,29.84,WSW,247,3.7,-999.0,91,-99.99,,,0.00,Acu-Link.com,2013-07-26 11:05:00,
2013-07-26 07:20:00,78.4,75.2,29.84,WSW,247,5.8,-999.0,90,-99.99,,,0.00,Acu-Link.com,2013-07-26 11:20:00,
2013-07-26 07:35:00,78.8,75.3,29.84,SW,225,3.7,-999.0,89,-99.99,,,0.00,Acu-Link.com,2013-07-26 11:35:00,
2013-07-26 07:50:00,79.3,75.4,29.84,SSW,202,4.7,-999.0,88,-99.99,,,0.00,Acu-Link.com,2013-07-26 11:50:00,
2013-07-26 08:05:00,80.4,75.8,29.86,SW,225,3.2,-999.0,86,-99.99,,,0.00,Acu-Link.com,2013-07-26 12:05:00,
2013-07-26 08:21:00,80.8,75.9,29.86,WNW,292,3.2,-999.0,85,-99.99,,,0.00,Acu-Link.com,2013-07-26 12:21:00,
2013-07-26 08:36:00,81.5,76.5,29.86,West,270,3.7,-999.0,85,-99.99,,,0.00,Acu-Link.com,2013-07-26 12:36:00,
2013-07-26 09:06:00,82.6,76.9,29.85,SW,225,6.3,-999.0,83,-99.99,,,0.00,Acu-Link.com,2013-07-26 13:06:00,
2013-07-26 09:22:00,83.1,76.6,29.84,SSW,202,4.7,-999.0,81,-99.99,,,0.00,Acu-Link.com,2013-07-26 13:22:00,
2013-07-26 09:37:00,83.5,76.7,29.85,SW,225,4.2,-999.0,80,-99.99,,,0.00,Acu-Link.com,2013-07-26 13:37:00,
2013-07-26 10:07:00,83.1,75.1,29.84,WSW,247,4.7,-999.0,77,-99.99,,,0.00,Acu-Link.com,2013-07-26 14:07:00,
2013-07-26 10:22:00,83.7,75.3,29.85,West,270,4.7,-999.0,76,-99.99,,,0.00,Acu-Link.com,2013-07-26 14:22:00,
2013-07-26 10:38:00,83.5,74.3,29.85,WSW,247,5.3,-999.0,74,-99.99,,,0.00,Acu-Link.com,2013-07-26 14:38:00,
2013-07-26 10:53:00,83.1,74.7,29.84,WSW,247,7.3,-999.0,76,-99.99,,,0.00,Acu-Link.com,2013-07-26 14:53:00,
2013-07-26 11:08:00,83.3,74.9,29.84,West,270,10.4,-999.0,76,-99.99,,,0.00,Acu-Link.com,2013-07-26 15:08:00,
2013-07-26 11:23:00,84.9,76.1,29.84,SW,225,8.3,-999.0,75,-99.99,,,0.00,Acu-Link.com,2013-07-26 15:23:00,
2013-07-26 11:38:00,85.8,75.7,29.84,SW,225,5.3,-999.0,72,-99.99,,,0.00,Acu-Link.com,2013-07-26 15:38:00,
2013-07-26 11:53:00,87.1,76.1,29.85,West,270,10.9,-999.0,70,-99.99,,,0.00,Acu-Link.com,2013-07-26 15:53:00,
2013-07-26 12:08:00,88.7,76.7,29.85,SW,225,8.3,-999.0,68,-99.99,,,0.00,Acu-Link.com,2013-07-26 16:08:00,
2013-07-26 12:23:00,89.1,76.2,29.83,WSW,247,5.3,-999.0,66,-99.99,,,0.00,Acu-Link.com,2013-07-26 16:23:00,
2013-07-26 12:38:00,90.9,76.5,29.83,WSW,247,6.8,-999.0,63,-99.99,,,0.00,Acu-Link.com,2013-07-26 16:38:00,
2013-07-26 12:54:00,90.9,76.0,29.82,West,270,5.8,-999.0,62,-99.99,,,0.00,Acu-Link.com,2013-07-26 16:54:00,
2013-07-26 13:09:00,90.9,76.5,29.82,WSW,247,8.3,-999.0,63,-99.99,,,0.00,Acu-Link.com,2013-07-26 17:09:00,
2013-07-26 13:24:00,90.9,76.5,29.83,WSW,247,6.8,-999.0,63,-99.99,,,0.00,Acu-Link.com,2013-07-26 17:24:00,
2013-07-26 13:39:00,90.0,76.6,29.82,West,270,8.3,-999.0,65,-99.99,,,0.00,Acu-Link.com,2013-07-26 17:39:00,
2013-07-26 13:54:00,91.6,77.2,29.82,SW,225,6.3,-999.0,63,-99.99,,,0.00,Acu-Link.com,2013-07-26 17:54:00,
2013-07-26 14:09:00,92.1,77.2,29.81,West,270,6.8,-999.0,62,-99.99,,,0.00,Acu-Link.com,2013-07-26 18:09:00,
2013-07-26 14:24:00,92.8,76.3,29.80,West,270,7.3,-999.0,59,-99.99,,,0.00,Acu-Link.com,2013-07-26 18:24:00,
2013-07-26 14:39:00,93.7,75.6,29.81,West,270,12.5,-999.0,56,-99.99,,,0.00,Acu-Link.com,2013-07-26 18:39:00,
2013-07-26 14:54:00,93.7,75.6,29.80,WNW,292,9.4,-999.0,56,-99.99,,,0.00,Acu-Link.com,2013-07-26 18:54:00,
2013-07-26 15:10:00,93.0,76.0,29.80,SW,225,2.2,-999.0,58,-99.99,,,0.00,Acu-Link.com,2013-07-26 19:10:00,
2013-07-26 15:25:00,93.0,75.5,29.78,WSW,247,8.9,-999.0,57,-99.99,,,0.00,Acu-Link.com,2013-07-26 19:25:00,
2013-07-26 15:40:00,93.0,75.5,29.78,West,270,5.8,-999.0,57,-99.99,,,0.00,Acu-Link.com,2013-07-26 19:40:00,
2013-07-26 15:55:00,87.8,75.4,29.79,West,270,5.8,-999.0,67,-99.99,,,0.00,Acu-Link.com,2013-07-26 19:55:00,
2013-07-26 16:10:00,87.4,76.4,29.80,WNW,292,2.2,-999.0,70,-99.99,,,0.00,Acu-Link.com,2013-07-26 20:10:00,
2013-07-26 16:25:00,86.9,75.9,29.79,NNE,22,2.7,-999.0,70,-99.99,,,0.00,Acu-Link.com,2013-07-26 20:25:00,
2013-07-26 16:41:00,87.3,76.7,29.79,South,180,2.7,-999.0,71,-99.99,,,0.00,Acu-Link.com,2013-07-26 20:41:00,
2013-07-26 16:56:00,82.6,76.9,29.78,WSW,247,3.7,-999.0,83,-99.99,,,0.00,Acu-Link.com,2013-07-26 20:56:00,
2013-07-26 17:11:00,84.6,78.1,29.78,West,270,0.0,-999.0,81,-99.99,,,0.01,Acu-Link.com,2013-07-26 21:11:00,
2013-07-26 17:41:00,88.2,78.0,29.78,SW,225,3.2,-999.0,72,-99.99,,,0.01,Acu-Link.com,2013-07-26 21:41:00,
2013-07-26 18:11:00,91.2,74.3,29.78,NNW,337,4.2,-999.0,58,-99.99,,,0.01,Acu-Link.com,2013-07-26 22:11:00,
2013-07-26 18:26:00,91.0,74.1,29.77,ENE,67,2.2,-999.0,58,-99.99,,,0.01,Acu-Link.com,2013-07-26 22:26:00,
2013-07-26 18:41:00,91.4,74.5,29.79,WSW,247,3.7,-999.0,58,-99.99,,,0.01,Acu-Link.com,2013-07-26 22:41:00,
2013-07-26 18:57:00,84.9,76.5,29.81,South,180,6.3,-999.0,76,-99.99,,,0.01,Acu-Link.com,2013-07-26 22:57:00,
2013-07-26 19:12:00,83.8,76.6,29.78,SE,135,2.2,-999.0,79,-99.99,,,0.01,Acu-Link.com,2013-07-26 23:12:00,
2013-07-26 19:27:00,83.3,76.1,29.79,SW,225,8.9,-999.0,79,-99.99,,,0.01,Acu-Link.com,2013-07-26 23:27:00,
2013-07-26 19:42:00,82.0,75.6,29.80,SSW,202,5.8,-999.0,81,-99.99,,,0.01,Acu-Link.com,2013-07-26 23:42:00,
2013-07-26 19:57:00,81.3,74.9,29.81,SSW,202,6.8,-999.0,81,-99.99,,,0.01,Acu-Link.com,2013-07-26 23:57:00,
2013-07-26 20:12:00,80.8,74.8,29.81,WSW,247,4.2,-999.0,82,-99.99,,,0.01,Acu-Link.com,2013-07-27 00:12:00,
2013-07-26 20:27:00,80.2,74.9,29.82,SSW,202,6.3,-999.0,84,-99.99,,,0.01,Acu-Link.com,2013-07-27 00:27:00,
2013-07-26 20:42:00,80.1,75.2,29.81,SSW,202,5.3,-999.0,85,-99.99,,,0.01,Acu-Link.com,2013-07-27 00:42:00,
2013-07-26 20:57:00,79.9,75.0,29.82,SW,225,4.7,-999.0,85,-99.99,,,0.01,Acu-Link.com,2013-07-27 00:57:00,
2013-07-26 21:13:00,79.7,74.8,29.82,West,270,4.7,-999.0,85,-99.99,,,0.01,Acu-Link.com,2013-07-27 01:13:00,
2013-07-26 21:28:00,79.3,74.7,29.82,SSW,202,3.7,-999.0,86,-99.99,,,0.01,Acu-Link.com,2013-07-27 01:28:00,
2013-07-26 21:43:00,79.2,74.6,29.82,SW,225,4.7,-999.0,86,-99.99,,,0.01,Acu-Link.com,2013-07-27 01:43:00,
2013-07-26 21:58:00,79.2,75.0,29.83,West,270,3.2,-999.0,87,-99.99,,,0.01,Acu-Link.com,2013-07-27 01:58:00,
2013-07-26 22:13:00,79.3,75.1,29.84,West,270,2.2,-999.0,87,-99.99,,,0.01,Acu-Link.com,2013-07-27 02:13:00,
2013-07-26 22:28:00,79.5,75.3,29.85,WSW,247,1.7,-999.0,87,-99.99,,,0.01,Acu-Link.com,2013-07-27 02:28:00,
2013-07-26 22:43:00,79.5,75.3,29.84,WSW,247,2.2,-999.0,87,-99.99,,,0.01,Acu-Link.com,2013-07-27 02:43:00,
2013-07-26 22:58:00,79.7,75.5,29.83,West,270,3.2,-999.0,87,-99.99,,,0.01,Acu-Link.com,2013-07-27 02:58:00,
2013-07-26 23:13:00,79.7,75.1,29.83,WSW,247,3.2,-999.0,86,-99.99,,,0.01,Acu-Link.com,2013-07-27 03:13:00,
2013-07-26 23:29:00,79.9,75.3,29.83,ESE,112,2.2,-999.0,86,-99.99,,,0.01,Acu-Link.com,2013-07-27 03:29:00,
2013-07-26 23:44:00,79.7,75.5,29.84,SSW,202,2.7,-999.0,87,-99.99,,,0.01,Acu-Link.com,2013-07-27 03:44:00,
2013-07-26 23:59:00,79.7,75.5,29.84,SSW,202,2.7,-999.0,87,-99.99,,,0.01,Acu-Link.com,2013-07-27 03:59:00,